• In Deutschland
  • Länderverzeichnis
  • Für 7 Tage
  • Wassertemperatur
  • Satellitenkarten
  • Wetterkarte
  • Widgets
  • user-avatar
    Anmelden

    Stündliche Wetter Quito

    Heute, 27 Juni, Dienstag

    Zeit Temperatur Niederschläge Wind Luftdruck Luftfeuchtigkeit
    00:00 +14°C° 0 mm 1 m/S 622 mmHg 61%
    01:00 +13°C° 0 mm 1 m/S 622 mmHg 65%
    02:00 +13°C° 0 mm 1 m/S 622 mmHg 67%
    03:00 +13°C° 0 mm 1 m/S 622 mmHg 68%
    04:00 +12°C° 0 mm 1 m/S 622 mmHg 70%
    05:00 +13°C° 0 mm 1 m/S 622 mmHg 69%
    06:00 +13°C° 0 mm 1 m/S 622 mmHg 67%
    07:00 +13°C° 0 mm 1 m/S 623 mmHg 65%
    08:00 +16°C° 0 mm 2 m/S 624 mmHg 55%
    09:00 +20°C° 0 mm 2 m/S 625 mmHg 44%
    10:00 +24°C° 0 mm 3 m/S 627 mmHg 33%
    11:00 +25°C° 0 mm 2 m/S 627 mmHg 30%
    12:00 +27°C° 0 mm 2 m/S 627 mmHg 27%
    13:00 +29°C° 0 mm 2 m/S 627 mmHg 23%
    14:00 +28°C° 0 mm 2 m/S 626 mmHg 23%
    15:00 +28°C° 0 mm 2 m/S 625 mmHg 23%
    16:00 +27°C° 0 mm 2 m/S 625 mmHg 23%
    17:00 +24°C° 0 mm 2 m/S 624 mmHg 31%
    18:00 +20°C° 0 mm 2 m/S 623 mmHg 39%
    19:00 +16°C° 0 mm 1 m/S 622 mmHg 47%
    20:00 +16°C° 0 mm 1 m/S 623 mmHg 47%
    21:00 +15°C° 0 mm 2 m/S 623 mmHg 47%
    22:00 +15°C° 0 mm 2 m/S 623 mmHg 47%
    23:00 +14°C° 0 mm 1 m/S 623 mmHg 50%

    Morgen, 28 Juni, Mittwoch

    Zeit Temperatur Niederschläge Wind Luftdruck Luftfeuchtigkeit
    00:00 +14°C° 0 mm 1 m/S 623 mmHg 52%
    01:00 +13°C° 0 mm 1 m/S 622 mmHg 55%
    02:00 +12°C° 0 mm 1 m/S 622 mmHg 58%
    03:00 +11°C° 0 mm 1 m/S 621 mmHg 62%
    04:00 +11°C° 0 mm 1 m/S 621 mmHg 65%
    05:00 +11°C° 0 mm 1 m/S 622 mmHg 64%
    06:00 +12°C° 0 mm 1 m/S 622 mmHg 64%
    07:00 +12°C° 0 mm 1 m/S 623 mmHg 63%
    08:00 +16°C° 0 mm 1 m/S 624 mmHg 52%
    09:00 +19°C° 0 mm 2 m/S 625 mmHg 40%
    10:00 +24°C° 0 mm 3 m/S 627 mmHg 29%
    11:00 +25°C° 0 mm 3 m/S 626 mmHg 27%
    12:00 +26°C° 0 mm 3 m/S 626 mmHg 24%
    13:00 +28°C° 0 mm 2 m/S 626 mmHg 22%
    14:00 +27°C° 0 mm 2 m/S 625 mmHg 22%
    15:00 +27°C° 0 mm 2 m/S 625 mmHg 22%
    16:00 +27°C° 0 mm 2 m/S 624 mmHg 21%
    17:00 +23°C° 0 mm 2 m/S 623 mmHg 29%
    18:00 +19°C° 0 mm 2 m/S 622 mmHg 36%
    19:00 +15°C° 0 mm 1 m/S 622 mmHg 44%
    20:00 +15°C° 0 mm 2 m/S 622 mmHg 44%
    21:00 +15°C° 0 mm 2 m/S 622 mmHg 45%
    22:00 +14°C° 0 mm 2 m/S 623 mmHg 45%
    23:00 +14°C° 0 mm 2 m/S 622 mmHg 47%

    übermorgen, 29 Juni, Donnerstag

    Zeit Temperatur Niederschläge Wind Luftdruck Luftfeuchtigkeit
    00:00 +13°C° 0 mm 2 m/S 622 mmHg 50%
    01:00 +12°C° 0 mm 1 m/S 622 mmHg 53%
    02:00 +12°C° 0 mm 1 m/S 621 mmHg 55%
    03:00 +11°C° 0 mm 1 m/S 621 mmHg 56%
    04:00 +10°C° 0 mm 1 m/S 621 mmHg 58%
    05:00 +11°C° 0 mm 1 m/S 621 mmHg 57%
    06:00 +11°C° 0 mm 1 m/S 622 mmHg 55%
    07:00 +12°C° 0 mm 1 m/S 623 mmHg 54%
    08:00 +15°C° 0 mm 2 m/S 624 mmHg 44%
    09:00 +19°C° 0 mm 3 m/S 625 mmHg 35%
    10:00 +22°C° 0 mm 4 m/S 627 mmHg 26%
    11:00 +23°C° 0 mm 4 m/S 626 mmHg 23%
    12:00 +26°C° 0 mm 3 m/S 626 mmHg 21%
    13:00 +27°C° 0 mm 3 m/S 626 mmHg 18%
    14:00 +27°C° 0 mm 3 m/S 625 mmHg 18%
    15:00 +27°C° 0 mm 3 m/S 625 mmHg 18%
    16:00 +26°C° 0 mm 2 m/S 624 mmHg 18%
    17:00 +23°C° 0 mm 2 m/S 624 mmHg 24%
    18:00 +18°C° 0 mm 2 m/S 623 mmHg 30%
    19:00 +15°C° 0 mm 2 m/S 622 mmHg 35%
    20:00 +14°C° 0 mm 2 m/S 622 mmHg 37%
    21:00 +13°C° 0 mm 2 m/S 623 mmHg 39%
    22:00 +12°C° 0 mm 1 m/S 623 mmHg 41%
    23:00 +12°C° 0 mm 1 m/S 622 mmHg 43%

    30 Juni, Freitag

    Zeit Temperatur Niederschläge Wind Luftdruck Luftfeuchtigkeit
    00:00 +11°C° 0 mm 1 m/S 622 mmHg 45%
    01:00 +10°C° 0 mm 1 m/S 621 mmHg 47%
    02:00 +10°C° 0 mm 1 m/S 621 mmHg 49%
    03:00 +9°C° 0 mm 1 m/S 621 mmHg 51%
    04:00 +9°C° 0 mm 1 m/S 621 mmHg 52%
    05:00 +9°C° 0 mm 1 m/S 622 mmHg 52%
    06:00 +10°C° 0 mm 1 m/S 622 mmHg 51%
    07:00 +11°C° 0 mm 1 m/S 623 mmHg 51%
    08:00 +15°C° 0 mm 2 m/S 624 mmHg 42%
    09:00 +18°C° 0 mm 2 m/S 626 mmHg 32%
    10:00 +22°C° 0 mm 3 m/S 627 mmHg 23%
    11:00 +25°C° 0 mm 3 m/S 627 mmHg 20%
    12:00 +26°C° 0 mm 3 m/S 626 mmHg 18%
    13:00 +27°C° 0 mm 2 m/S 626 mmHg 15%
    14:00 +27°C° 0 mm 2 m/S 626 mmHg 15%
    15:00 +27°C° 0 mm 2 m/S 625 mmHg 15%
    16:00 +26°C° 0 mm 2 m/S 625 mmHg 15%
    17:00 +21°C° 0 mm 2 m/S 624 mmHg 23%
    18:00 +19°C° 0 mm 1 m/S 623 mmHg 31%
    19:00 +14°C° 0 mm 1 m/S 622 mmHg 38%
    20:00 +13°C° 0 mm 1 m/S 622 mmHg 37%
    21:00 +13°C° 0 mm 1 m/S 622 mmHg 36%
    22:00 +12°C° 0 mm 1 m/S 622 mmHg 35%
    23:00 +12°C° 0 mm 1 m/S 622 mmHg 38%

    1 Juli, Samstag

    Zeit Temperatur Niederschläge Wind Luftdruck Luftfeuchtigkeit
    00:00 +11°C° 0 mm 1 m/S 622 mmHg 41%
    01:00 +10°C° 0 mm 1 m/S 621 mmHg 44%
    02:00 +10°C° 0 mm 1 m/S 621 mmHg 47%
    03:00 +9°C° 0 mm 1 m/S 621 mmHg 50%
    04:00 +9°C° 0 mm 1 m/S 621 mmHg 52%
    05:00 +10°C° 0 mm 1 m/S 621 mmHg 52%
    06:00 +10°C° 0 mm 1 m/S 622 mmHg 52%
    07:00 +11°C° 0 mm 1 m/S 623 mmHg 52%
    08:00 +15°C° 0 mm 2 m/S 624 mmHg 43%
    09:00 +19°C° 0 mm 2 m/S 625 mmHg 34%
    10:00 +24°C° 0 mm 3 m/S 627 mmHg 26%
    11:00 +25°C° 0 mm 3 m/S 626 mmHg 23%
    12:00 +26°C° 0 mm 3 m/S 626 mmHg 20%
    13:00 +27°C° 0 mm 3 m/S 626 mmHg 17%
    14:00 +27°C° 0 mm 3 m/S 625 mmHg 18%
    15:00 +27°C° 0 mm 3 m/S 625 mmHg 18%
    16:00 +27°C° 0 mm 2 m/S 624 mmHg 18%
    17:00 +23°C° 0 mm 2 m/S 623 mmHg 25%
    18:00 +18°C° 0 mm 2 m/S 623 mmHg 31%
    19:00 +15°C° 0 mm 2 m/S 622 mmHg 38%
    20:00 +14°C° 0 mm 1 m/S 622 mmHg 40%
    21:00 +13°C° 0 mm 1 m/S 622 mmHg 43%
    22:00 +13°C° 0 mm 1 m/S 622 mmHg 45%
    23:00 +12°C° 0 mm 1 m/S 622 mmHg 48%

    2 Juli, Sonntag

    Zeit Temperatur Niederschläge Wind Luftdruck Luftfeuchtigkeit
    00:00 +11°C° 0 mm 1 m/S 621 mmHg 51%
    01:00 +11°C° 0 mm 1 m/S 621 mmHg 55%
    02:00 +10°C° 0 mm 1 m/S 621 mmHg 58%
    03:00 +10°C° 0 mm 1 m/S 621 mmHg 61%
    04:00 +10°C° 0 mm 1 m/S 621 mmHg 64%
    05:00 +10°C° 0 mm 1 m/S 621 mmHg 62%
    06:00 +11°C° 0 mm 1 m/S 622 mmHg 60%
    07:00 +11°C° 0 mm 1 m/S 623 mmHg 58%
    08:00 +15°C° 0 mm 2 m/S 624 mmHg 49%
    09:00 +18°C° 0 mm 3 m/S 625 mmHg 39%
    10:00 +22°C° 0 mm 4 m/S 626 mmHg 30%
    11:00 +24°C° 0 mm 3 m/S 626 mmHg 27%
    12:00 +26°C° 0 mm 3 m/S 625 mmHg 23%
    13:00 +27°C° 0 mm 3 m/S 625 mmHg 20%
    14:00 +27°C° 0 mm 2 m/S 625 mmHg 20%
    15:00 +26°C° 0 mm 2 m/S 624 mmHg 20%
    16:00 +26°C° 0 mm 2 m/S 624 mmHg 20%
    17:00 +23°C° 0 mm 2 m/S 623 mmHg 26%
    18:00 +18°C° 0 mm 2 m/S 622 mmHg 33%
    19:00 +15°C° 0 mm 2 m/S 622 mmHg 40%
    20:00 +14°C° 0 mm 2 m/S 622 mmHg 43%
    21:00 +13°C° 0 mm 2 m/S 622 mmHg 47%
    22:00 +13°C° 0 mm 1 m/S 622 mmHg 50%
    23:00 +12°C° 0 mm 1 m/S 622 mmHg 55%
    Mehr zeigen